Time,TemperatureF,DewpointF,PressureIn,WindDirection,WindDirectionDegrees,WindSpeedMPH,WindSpeedGustMPH,Humidity,HourlyPrecipIn,Conditions,Clouds,dailyrainin,SoftwareType,DateUTC
2013-06-02 00:02:00,52.2,43.3,30.01,ENE,65,8.0,17.0,72,0.00,,,0.07,meteohub,2013-06-02 05:02:00,
2013-06-02 00:07:00,52.3,43.2,30.02,East,92,7.0,14.0,71,0.00,,,0.00,meteohub,2013-06-02 05:07:00,
2013-06-02 00:12:00,52.5,43.3,30.02,East,87,3.0,17.0,71,0.00,,,0.00,meteohub,2013-06-02 05:12:00,
2013-06-02 00:17:00,52.7,43.2,30.02,ENE,78,5.0,18.0,70,0.00,,,0.00,meteohub,2013-06-02 05:17:00,
2013-06-02 00:22:00,52.7,43.2,30.02,ENE,76,7.0,18.0,70,0.00,,,0.00,meteohub,2013-06-02 05:22:00,
2013-06-02 00:27:00,52.7,43.5,30.02,ENE,66,6.0,18.0,71,0.00,,,0.00,meteohub,2013-06-02 05:27:00,
2013-06-02 00:32:00,52.7,43.2,30.02,East,80,5.0,16.0,70,0.00,,,0.00,meteohub,2013-06-02 05:32:00,
2013-06-02 00:37:00,52.7,43.2,30.02,ENE,61,9.0,16.0,70,0.00,,,0.00,meteohub,2013-06-02 05:37:00,
2013-06-02 00:42:00,52.9,43.0,30.02,East,96,10.0,19.0,69,0.00,,,0.00,meteohub,2013-06-02 05:42:00,
2013-06-02 00:47:00,52.5,43.0,30.03,ENE,74,5.0,19.0,70,0.00,,,0.00,meteohub,2013-06-02 05:47:00,
2013-06-02 00:52:00,52.3,43.2,30.03,ENE,62,3.0,19.0,71,0.00,,,0.00,meteohub,2013-06-02 05:52:00,
2013-06-02 00:57:00,52.2,43.0,30.02,East,94,3.0,17.0,71,0.00,,,0.00,meteohub,2013-06-02 05:57:00,
2013-06-02 01:02:00,52.0,42.8,30.03,East,87,6.0,17.0,71,0.00,,,0.00,meteohub,2013-06-02 06:02:00,
2013-06-02 01:07:00,52.0,42.8,30.03,East,94,6.0,17.0,71,0.00,,,0.00,meteohub,2013-06-02 06:07:00,
2013-06-02 01:12:00,51.8,43.0,30.03,East,86,5.0,17.0,72,0.00,,,0.00,meteohub,2013-06-02 06:12:00,
2013-06-02 01:17:00,51.6,43.0,30.03,ESE,102,10.0,17.0,72,0.00,,,0.00,meteohub,2013-06-02 06:17:00,
2013-06-02 01:22:00,51.4,42.8,30.03,ESE,103,1.0,14.0,72,0.00,,,0.00,meteohub,2013-06-02 06:22:00,
2013-06-02 01:27:00,51.4,42.8,30.03,East,94,8.0,13.0,72,0.00,,,0.00,meteohub,2013-06-02 06:27:00,
2013-06-02 01:32:00,51.4,42.8,30.03,East,84,4.0,13.0,72,0.00,,,0.00,meteohub,2013-06-02 06:32:00,
2013-06-02 01:37:00,51.4,42.8,30.03,East,86,4.0,12.0,72,0.00,,,0.00,meteohub,2013-06-02 06:37:00,
2013-06-02 01:42:00,51.4,42.8,30.04,East,82,4.0,12.0,72,0.00,,,0.00,meteohub,2013-06-02 06:42:00,
2013-06-02 01:47:00,51.3,42.6,30.04,East,88,4.0,12.0,72,0.00,,,0.00,meteohub,2013-06-02 06:47:00,
2013-06-02 01:52:00,51.3,42.6,30.04,ENE,64,5.0,12.0,72,0.00,,,0.00,meteohub,2013-06-02 06:52:00,
2013-06-02 01:57:00,51.1,42.4,30.04,ESE,105,10.0,11.0,72,0.00,,,0.00,meteohub,2013-06-02 06:57:00,
2013-06-02 02:02:00,51.3,42.6,30.04,East,96,2.0,12.0,72,0.00,,,0.00,meteohub,2013-06-02 07:02:00,
2013-06-02 02:08:00,51.1,42.4,30.04,East,96,4.0,13.0,72,0.00,,,0.00,meteohub,2013-06-02 07:08:00,
2013-06-02 02:12:00,50.7,42.4,30.04,East,92,0.0,13.0,73,0.00,,,0.00,meteohub,2013-06-02 07:12:00,
2013-06-02 02:18:00,50.7,42.4,30.04,East,95,5.0,10.0,73,0.00,,,0.00,meteohub,2013-06-02 07:18:00,
2013-06-02 02:23:00,50.5,42.6,30.04,East,97,5.0,6.0,74,0.00,,,0.00,meteohub,2013-06-02 07:23:00,
2013-06-02 02:28:00,50.5,42.6,30.04,East,92,2.0,6.0,74,0.00,,,0.00,meteohub,2013-06-02 07:28:00,
2013-06-02 02:33:00,50.4,42.4,30.04,East,93,0.0,7.0,74,0.00,,,0.00,meteohub,2013-06-02 07:33:00,
2013-06-02 02:38:00,50.5,43.0,30.04,East,89,1.0,7.0,75,0.00,,,0.00,meteohub,2013-06-02 07:38:00,
2013-06-02 02:43:00,50.5,43.0,30.05,East,80,0.0,7.0,75,0.00,,,0.00,meteohub,2013-06-02 07:43:00,
2013-06-02 02:48:00,50.5,43.0,30.05,East,80,0.0,7.0,75,0.00,,,0.00,meteohub,2013-06-02 07:48:00,
2013-06-02 02:53:00,50.5,43.0,30.05,East,80,2.0,7.0,75,0.00,,,0.00,meteohub,2013-06-02 07:53:00,
2013-06-02 02:58:00,50.5,43.3,30.05,East,79,0.0,5.0,76,0.00,,,0.00,meteohub,2013-06-02 07:58:00,
2013-06-02 03:03:00,50.5,43.3,30.05,East,79,1.0,4.0,76,0.00,,,0.00,meteohub,2013-06-02 08:03:00,
2013-06-02 03:08:00,50.5,43.3,30.05,East,80,0.0,4.0,76,0.00,,,0.00,meteohub,2013-06-02 08:08:00,
2013-06-02 03:13:00,50.5,43.3,30.05,East,80,1.0,3.0,76,0.00,,,0.00,meteohub,2013-06-02 08:13:00,
2013-06-02 03:18:00,50.5,43.3,30.05,East,80,0.0,3.0,76,0.00,,,0.00,meteohub,2013-06-02 08:18:00,
2013-06-02 03:23:00,50.7,43.5,30.06,East,79,3.0,4.0,76,0.00,,,0.00,meteohub,2013-06-02 08:23:00,
2013-06-02 03:28:00,51.1,43.7,30.06,ENE,78,5.0,6.0,76,0.00,,,0.00,meteohub,2013-06-02 08:28:00,
2013-06-02 03:33:00,51.1,43.7,30.06,ENE,57,6.0,6.0,76,0.00,,,0.00,meteohub,2013-06-02 08:33:00,
2013-06-02 03:38:00,51.1,44.1,30.06,East,80,6.0,6.0,77,0.00,,,0.00,meteohub,2013-06-02 08:38:00,
2013-06-02 03:43:00,50.7,44.4,30.06,ENE,67,7.0,8.0,79,0.00,,,0.00,meteohub,2013-06-02 08:43:00,
2013-06-02 03:48:00,50.5,44.6,30.06,ENE,75,1.0,9.0,80,0.00,,,0.00,meteohub,2013-06-02 08:48:00,
2013-06-02 03:53:00,50.4,44.8,30.06,ESE,107,6.0,13.0,81,0.00,,,0.00,meteohub,2013-06-02 08:53:00,
2013-06-02 03:58:00,50.4,45.1,30.06,ENE,68,2.0,13.0,82,0.00,,,0.00,meteohub,2013-06-02 08:58:00,
2013-06-02 04:03:00,50.2,45.0,30.06,East,91,2.0,13.0,82,0.00,,,0.00,meteohub,2013-06-02 09:03:00,
2013-06-02 04:08:00,50.0,45.0,30.06,East,87,4.0,10.0,83,0.00,,,0.00,meteohub,2013-06-02 09:08:00,
2013-06-02 04:13:00,49.8,45.1,30.06,East,91,6.0,10.0,84,0.00,,,0.00,meteohub,2013-06-02 09:13:00,
2013-06-02 04:18:00,49.8,45.5,30.07,ENE,72,7.0,7.0,85,0.00,,,0.00,meteohub,2013-06-02 09:18:00,
2013-06-02 04:23:00,49.6,45.3,30.07,East,90,5.0,10.0,85,0.00,,,0.00,meteohub,2013-06-02 09:23:00,
2013-06-02 04:28:00,49.6,45.3,30.07,ESE,105,1.0,10.0,85,0.00,,,0.00,meteohub,2013-06-02 09:28:00,
2013-06-02 04:33:00,49.6,45.7,30.07,East,92,5.0,10.0,86,0.00,,,0.00,meteohub,2013-06-02 09:33:00,
2013-06-02 04:38:00,49.6,45.7,30.07,East,79,4.0,9.0,86,0.00,,,0.00,meteohub,2013-06-02 09:38:00,
2013-06-02 04:43:00,49.6,45.7,30.07,ENE,68,3.0,9.0,86,0.00,,,0.00,meteohub,2013-06-02 09:43:00,
2013-06-02 04:48:00,49.6,45.3,30.08,NE,51,9.0,9.0,85,0.00,,,0.00,meteohub,2013-06-02 09:48:00,
2013-06-02 04:53:00,49.5,44.8,30.07,ENE,67,9.0,9.0,84,0.00,,,0.00,meteohub,2013-06-02 09:53:00,
2013-06-02 04:59:00,49.5,44.6,30.08,NE,51,5.0,11.0,83,0.00,,,0.00,meteohub,2013-06-02 09:59:00,
2013-06-02 05:04:00,49.3,44.1,30.08,ENE,70,6.0,11.0,82,0.00,,,0.00,meteohub,2013-06-02 10:04:00,
2013-06-02 05:09:00,48.9,43.7,30.08,ENE,68,5.0,11.0,82,0.00,,,0.00,meteohub,2013-06-02 10:09:00,
2013-06-02 05:14:00,48.6,43.3,30.08,ENE,74,5.0,13.0,82,0.00,,,0.00,meteohub,2013-06-02 10:14:00,
2013-06-02 05:19:00,48.4,43.2,30.08,ENE,61,6.0,13.0,82,0.00,,,0.00,meteohub,2013-06-02 10:19:00,
2013-06-02 05:24:00,48.0,42.8,30.09,ENE,69,2.0,12.0,82,0.00,,,0.00,meteohub,2013-06-02 10:24:00,
2013-06-02 05:29:00,48.0,42.8,30.09,ENE,67,5.0,11.0,82,0.00,,,0.00,meteohub,2013-06-02 10:29:00,
2013-06-02 05:34:00,47.8,42.6,30.09,ENE,68,1.0,11.0,82,0.00,,,0.00,meteohub,2013-06-02 10:34:00,
2013-06-02 05:39:00,47.7,42.4,30.09,ENE,74,3.0,9.0,82,0.00,,,0.00,meteohub,2013-06-02 10:39:00,
2013-06-02 05:44:00,47.7,42.8,30.09,ENE,57,3.0,9.0,83,0.00,,,0.00,meteohub,2013-06-02 10:44:00,
2013-06-02 05:49:00,47.5,42.6,30.09,NE,56,2.0,9.0,83,0.00,,,0.00,meteohub,2013-06-02 10:49:00,
2013-06-02 05:54:00,47.5,42.6,30.09,ENE,57,1.0,9.0,83,0.00,,,0.00,meteohub,2013-06-02 10:54:00,
2013-06-02 05:59:00,47.5,42.6,30.09,ENE,70,3.0,9.0,83,0.00,,,0.00,meteohub,2013-06-02 10:59:00,
2013-06-02 06:04:00,47.5,42.3,30.10,ENE,59,4.0,9.0,82,0.00,,,0.00,meteohub,2013-06-02 11:04:00,
2013-06-02 06:09:00,47.3,42.1,30.10,ENE,59,6.0,9.0,82,0.00,,,0.00,meteohub,2013-06-02 11:09:00,
2013-06-02 06:14:00,47.1,41.9,30.10,ENE,62,4.0,9.0,82,0.00,,,0.00,meteohub,2013-06-02 11:14:00,
2013-06-02 06:19:00,47.1,41.9,30.11,ENE,75,2.0,9.0,82,0.00,,,0.00,meteohub,2013-06-02 11:19:00,
2013-06-02 06:24:00,47.1,41.9,30.11,ENE,68,1.0,7.0,82,0.00,,,0.00,meteohub,2013-06-02 11:24:00,
2013-06-02 06:29:00,47.1,41.9,30.11,ENE,68,0.0,7.0,82,0.00,,,0.00,meteohub,2013-06-02 11:29:00,
2013-06-02 06:34:00,47.1,41.5,30.11,East,80,3.0,7.0,81,0.00,,,0.00,meteohub,2013-06-02 11:34:00,
2013-06-02 06:39:00,47.5,41.5,30.11,East,97,4.0,7.0,80,0.00,,,0.00,meteohub,2013-06-02 11:39:00,
2013-06-02 06:44:00,47.8,41.7,30.12,East,90,5.0,9.0,79,0.00,,,0.00,meteohub,2013-06-02 11:44:00,
2013-06-02 06:49:00,48.2,41.4,30.12,East,86,2.0,9.0,77,0.00,,,0.00,meteohub,2013-06-02 11:49:00,
2013-06-02 06:54:00,48.6,41.7,30.12,ENE,76,3.0,9.0,77,0.00,,,0.00,meteohub,2013-06-02 11:54:00,
2013-06-02 06:59:00,48.7,41.9,30.12,East,80,4.0,7.0,77,0.00,,,0.00,meteohub,2013-06-02 11:59:00,
2013-06-02 07:04:00,48.9,41.7,30.12,East,80,4.0,7.0,76,0.00,,,0.00,meteohub,2013-06-02 12:04:00,
2013-06-02 07:09:00,49.3,42.1,30.12,East,84,7.0,7.0,76,0.00,,,0.00,meteohub,2013-06-02 12:09:00,
2013-06-02 07:14:00,49.5,41.9,30.12,East,88,5.0,7.0,75,0.00,,,0.00,meteohub,2013-06-02 12:14:00,
2013-06-02 07:19:00,49.5,41.9,30.12,East,83,7.0,12.0,75,0.00,,,0.00,meteohub,2013-06-02 12:19:00,
2013-06-02 07:24:00,49.6,42.1,30.12,East,87,7.0,12.0,75,0.00,,,0.00,meteohub,2013-06-02 12:24:00,
2013-06-02 07:29:00,49.8,42.3,30.12,ENE,66,4.0,12.0,75,0.00,,,0.00,meteohub,2013-06-02 12:29:00,
2013-06-02 07:34:00,50.2,42.6,30.12,ESE,105,10.0,11.0,75,0.00,,,0.00,meteohub,2013-06-02 12:34:00,
2013-06-02 07:39:00,50.5,42.6,30.12,ENE,71,7.0,11.0,74,0.00,,,0.00,meteohub,2013-06-02 12:39:00,
2013-06-02 07:44:00,50.5,42.3,30.13,East,87,6.0,10.0,73,0.00,,,0.00,meteohub,2013-06-02 12:44:00,
2013-06-02 07:49:00,50.9,42.6,30.13,ENE,78,4.0,10.0,73,0.00,,,0.00,meteohub,2013-06-02 12:49:00,
2013-06-02 07:54:00,50.7,42.1,30.13,ENE,74,7.0,10.0,72,0.00,,,0.00,meteohub,2013-06-02 12:54:00,
2013-06-02 07:59:00,50.9,42.3,30.13,NE,51,12.0,14.0,72,0.00,,,0.00,meteohub,2013-06-02 12:59:00,
2013-06-02 08:04:00,51.3,42.3,30.14,East,84,7.0,14.0,71,0.00,,,0.00,meteohub,2013-06-02 13:04:00,
2013-06-02 08:09:00,51.4,42.4,30.14,East,90,3.0,14.0,71,0.00,,,0.00,meteohub,2013-06-02 13:09:00,
2013-06-02 08:14:00,51.3,42.3,30.14,East,92,5.0,13.0,71,0.00,,,0.00,meteohub,2013-06-02 13:14:00,
2013-06-02 08:19:00,51.1,42.1,30.14,East,79,3.0,14.0,71,0.00,,,0.00,meteohub,2013-06-02 13:19:00,
2013-06-02 08:24:00,51.1,42.1,30.14,East,88,6.0,14.0,71,0.00,,,0.00,meteohub,2013-06-02 13:24:00,
2013-06-02 08:29:00,51.3,42.3,30.14,East,101,8.0,14.0,71,0.00,,,0.00,meteohub,2013-06-02 13:29:00,
2013-06-02 08:34:00,51.4,41.9,30.14,East,95,5.0,13.0,70,0.00,,,0.00,meteohub,2013-06-02 13:34:00,
2013-06-02 08:39:00,51.8,42.6,30.15,East,82,0.0,12.0,71,0.00,,,0.00,meteohub,2013-06-02 13:39:00,
2013-06-02 08:44:00,52.0,41.4,30.15,ESE,103,7.0,11.0,67,0.00,,,0.00,meteohub,2013-06-02 13:44:00,
2013-06-02 08:49:00,51.6,41.4,30.15,ENE,76,2.0,13.0,68,0.00,,,0.00,meteohub,2013-06-02 13:49:00,
2013-06-02 08:54:00,52.0,41.7,30.15,East,92,3.0,13.0,68,0.00,,,0.00,meteohub,2013-06-02 13:54:00,
2013-06-02 08:59:00,52.2,41.5,30.15,ENE,76,6.0,13.0,67,0.00,,,0.00,meteohub,2013-06-02 13:59:00,
2013-06-02 09:04:00,52.3,41.7,30.15,ENE,59,5.0,13.0,67,0.00,,,0.00,meteohub,2013-06-02 14:04:00,
2013-06-02 09:09:00,52.5,41.2,30.16,East,99,6.0,12.0,65,0.00,,,0.00,meteohub,2013-06-02 14:09:00,
2013-06-02 09:14:00,52.7,41.2,30.16,East,94,4.0,14.0,65,0.00,,,0.00,meteohub,2013-06-02 14:14:00,
2013-06-02 09:19:00,52.9,42.3,30.15,East,90,6.0,15.0,67,0.00,,,0.00,meteohub,2013-06-02 14:19:00,
2013-06-02 09:24:00,53.2,42.3,30.15,East,81,8.0,15.0,66,0.00,,,0.00,meteohub,2013-06-02 14:24:00,
2013-06-02 09:29:00,52.9,41.0,30.16,East,88,4.0,15.0,64,0.00,,,0.00,meteohub,2013-06-02 14:29:00,
2013-06-02 09:34:00,52.9,41.0,30.16,ESE,109,10.0,16.0,64,0.00,,,0.00,meteohub,2013-06-02 14:34:00,
2013-06-02 09:39:00,52.9,41.0,30.16,East,98,3.0,16.0,64,0.00,,,0.00,meteohub,2013-06-02 14:39:00,
2013-06-02 09:44:00,53.4,41.9,30.16,NE,41,9.0,14.0,65,0.00,,,0.00,meteohub,2013-06-02 14:44:00,
2013-06-02 09:49:00,54.0,42.1,30.16,NE,44,7.0,14.0,64,0.00,,,0.00,meteohub,2013-06-02 14:49:00,
2013-06-02 09:54:00,54.1,41.9,30.16,East,82,10.0,13.0,63,0.00,,,0.00,meteohub,2013-06-02 14:54:00,
2013-06-02 09:59:00,54.0,41.7,30.16,East,81,4.0,13.0,63,0.00,,,0.00,meteohub,2013-06-02 14:59:00,
2013-06-02 10:04:00,54.3,42.1,30.15,ESE,102,5.0,15.0,63,0.00,,,0.00,meteohub,2013-06-02 15:04:00,
2013-06-02 10:09:00,54.7,41.9,30.15,NE,45,11.0,15.0,62,0.00,,,0.00,meteohub,2013-06-02 15:09:00,
2013-06-02 10:14:00,54.0,42.1,30.15,ENE,65,2.0,15.0,64,0.00,,,0.00,meteohub,2013-06-02 15:14:00,
2013-06-02 10:19:00,54.1,41.9,30.15,ENE,74,4.0,14.0,63,0.00,,,0.00,meteohub,2013-06-02 15:19:00,
2013-06-02 10:24:00,54.0,41.2,30.15,East,86,9.0,14.0,62,0.00,,,0.00,meteohub,2013-06-02 15:24:00,
2013-06-02 10:29:00,54.1,41.0,30.15,ENE,63,7.0,15.0,61,0.00,,,0.00,meteohub,2013-06-02 15:29:00,
2013-06-02 10:34:00,54.7,41.9,30.15,ENE,63,9.0,16.0,62,0.00,,,0.00,meteohub,2013-06-02 15:34:00,
2013-06-02 10:39:00,55.0,41.4,30.15,ESE,117,7.0,17.0,60,0.00,,,0.00,meteohub,2013-06-02 15:39:00,
2013-06-02 10:44:00,55.6,42.3,30.15,East,88,8.0,17.0,61,0.00,,,0.00,meteohub,2013-06-02 15:44:00,
2013-06-02 10:49:00,55.8,42.1,30.15,East,94,5.0,17.0,60,0.00,,,0.00,meteohub,2013-06-02 15:49:00,
2013-06-02 10:54:00,55.9,41.9,30.15,East,97,6.0,14.0,59,0.00,,,0.00,meteohub,2013-06-02 15:54:00,
2013-06-02 10:59:00,55.9,41.4,30.15,East,83,10.0,14.0,58,0.00,,,0.00,meteohub,2013-06-02 15:59:00,
2013-06-02 11:04:00,55.9,41.4,30.15,East,80,6.0,14.0,58,0.00,,,0.00,meteohub,2013-06-02 16:04:00,
2013-06-02 11:09:00,55.9,41.9,30.14,ENE,57,11.0,14.0,59,0.00,,,0.00,meteohub,2013-06-02 16:09:00,
2013-06-02 11:14:00,55.9,41.9,30.15,East,83,11.0,15.0,59,0.00,,,0.00,meteohub,2013-06-02 16:14:00,
2013-06-02 11:19:00,55.8,41.7,30.15,NE,55,10.0,15.0,59,0.00,,,0.00,meteohub,2013-06-02 16:19:00,
2013-06-02 11:24:00,55.9,40.5,30.15,ENE,72,5.0,15.0,56,0.00,,,0.00,meteohub,2013-06-02 16:24:00,
2013-06-02 11:29:00,56.3,41.7,30.15,NE,41,7.0,15.0,58,0.00,,,0.00,meteohub,2013-06-02 16:29:00,
2013-06-02 11:34:00,56.5,41.4,30.15,ENE,59,16.0,16.0,57,0.00,,,0.00,meteohub,2013-06-02 16:34:00,
2013-06-02 11:39:00,56.7,41.2,30.15,NE,51,13.0,16.0,56,0.00,,,0.00,meteohub,2013-06-02 16:39:00,
2013-06-02 11:44:00,56.8,42.6,30.14,East,83,4.0,17.0,59,0.00,,,0.00,meteohub,2013-06-02 16:44:00,
2013-06-02 11:49:00,57.7,43.5,30.15,East,100,10.0,17.0,59,0.00,,,0.00,meteohub,2013-06-02 16:49:00,
2013-06-02 11:54:00,57.9,43.2,30.14,East,88,6.0,16.0,58,0.00,,,0.00,meteohub,2013-06-02 16:54:00,
2013-06-02 11:59:00,57.9,41.4,30.14,East,84,5.0,13.0,54,0.00,,,0.00,meteohub,2013-06-02 16:59:00,
2013-06-02 12:04:00,57.4,39.9,30.14,East,94,6.0,13.0,52,0.00,,,0.00,meteohub,2013-06-02 17:04:00,
2013-06-02 12:09:00,58.1,42.1,30.14,ENE,74,9.0,12.0,55,0.00,,,0.00,meteohub,2013-06-02 17:09:00,
2013-06-02 12:14:00,57.7,41.7,30.14,NE,45,7.0,15.0,55,0.00,,,0.00,meteohub,2013-06-02 17:14:00,
2013-06-02 12:20:00,57.7,41.2,30.14,ENE,67,5.0,15.0,54,0.00,,,0.00,meteohub,2013-06-02 17:20:00,
2013-06-02 12:25:00,57.9,41.4,30.14,NE,40,6.0,15.0,54,0.00,,,0.00,meteohub,2013-06-02 17:25:00,
2013-06-02 12:30:00,58.3,41.2,30.14,SE,143,3.0,15.0,53,0.00,,,0.00,meteohub,2013-06-02 17:30:00,
2013-06-02 12:35:00,58.6,40.6,30.14,East,96,3.0,12.0,51,0.00,,,0.00,meteohub,2013-06-02 17:35:00,
2013-06-02 12:40:00,59.0,41.4,30.14,East,90,9.0,12.0,52,0.00,,,0.00,meteohub,2013-06-02 17:40:00,
2013-06-02 12:45:00,58.8,41.2,30.14,ESE,102,7.0,15.0,52,0.00,,,0.00,meteohub,2013-06-02 17:45:00,
2013-06-02 12:50:00,59.0,41.4,30.14,East,91,9.0,15.0,52,0.00,,,0.00,meteohub,2013-06-02 17:50:00,
2013-06-02 12:55:00,59.2,41.5,30.14,ESE,109,0.0,12.0,52,0.00,,,0.00,meteohub,2013-06-02 17:55:00,
2013-06-02 13:00:00,59.7,42.1,30.14,ENE,60,9.0,13.0,52,0.00,,,0.00,meteohub,2013-06-02 18:00:00,
2013-06-02 13:05:00,59.2,41.0,30.13,NNE,32,4.0,13.0,51,0.00,,,0.00,meteohub,2013-06-02 18:05:00,
2013-06-02 13:10:00,59.4,42.3,30.13,NE,42,4.0,13.0,53,0.00,,,0.00,meteohub,2013-06-02 18:10:00,
2013-06-02 13:15:00,60.1,42.4,30.13,East,79,3.0,13.0,52,0.00,,,0.00,meteohub,2013-06-02 18:15:00,
2013-06-02 13:20:00,60.4,42.3,30.13,SE,133,4.0,13.0,51,0.00,,,0.00,meteohub,2013-06-02 18:20:00,
2013-06-02 13:25:00,60.3,42.6,30.13,East,98,0.0,13.0,52,0.00,,,0.00,meteohub,2013-06-02 18:25:00,
2013-06-02 13:30:00,60.6,43.0,30.12,East,83,5.0,9.0,52,0.00,,,0.00,meteohub,2013-06-02 18:30:00,
2013-06-02 13:35:00,61.0,42.8,30.13,East,91,8.0,11.0,51,0.00,,,0.00,meteohub,2013-06-02 18:35:00,
2013-06-02 13:40:00,60.8,42.1,30.13,ENE,74,7.0,11.0,50,0.00,,,0.00,meteohub,2013-06-02 18:40:00,
2013-06-02 13:45:00,61.0,42.8,30.13,ENE,78,5.0,11.0,51,0.00,,,0.00,meteohub,2013-06-02 18:45:00,
2013-06-02 13:50:00,61.3,45.0,30.13,ESE,122,3.0,12.0,55,0.00,,,0.00,meteohub,2013-06-02 18:50:00,
2013-06-02 13:55:00,61.9,44.1,30.13,ESE,102,3.0,12.0,52,0.00,,,0.00,meteohub,2013-06-02 18:55:00,
2013-06-02 14:00:00,61.9,42.4,30.13,East,101,7.0,11.0,49,0.00,,,0.00,meteohub,2013-06-02 19:00:00,
2013-06-02 14:05:00,61.5,42.3,30.12,ESE,109,4.0,11.0,49,0.00,,,0.00,meteohub,2013-06-02 19:05:00,
2013-06-02 14:10:00,61.2,41.9,30.12,East,98,4.0,11.0,49,0.00,,,0.00,meteohub,2013-06-02 19:10:00,
2013-06-02 14:15:00,61.3,42.1,30.13,East,82,5.0,11.0,49,0.00,,,0.00,meteohub,2013-06-02 19:15:00,
2013-06-02 14:20:00,61.3,43.0,30.13,ESE,115,0.0,11.0,51,0.00,,,0.00,meteohub,2013-06-02 19:20:00,
2013-06-02 14:25:00,62.2,42.8,30.13,NE,54,4.0,10.0,49,0.00,,,0.00,meteohub,2013-06-02 19:25:00,
2013-06-02 14:30:00,62.4,43.5,30.13,East,86,0.0,9.0,50,0.00,,,0.00,meteohub,2013-06-02 19:30:00,
2013-06-02 14:35:00,63.0,43.0,30.13,NNE,17,9.0,9.0,48,0.00,,,0.00,meteohub,2013-06-02 19:35:00,
2013-06-02 14:40:00,63.0,42.4,30.13,ENE,65,6.0,11.0,47,0.00,,,0.00,meteohub,2013-06-02 19:40:00,
2013-06-02 14:45:00,62.2,41.2,30.12,ESE,111,3.0,12.0,46,0.00,,,0.00,meteohub,2013-06-02 19:45:00,
2013-06-02 14:50:00,62.2,41.7,30.12,NE,51,3.0,12.0,47,0.00,,,0.00,meteohub,2013-06-02 19:50:00,
2013-06-02 14:55:00,62.4,41.4,30.12,North,0,4.0,12.0,46,0.00,,,0.00,meteohub,2013-06-02 19:55:00,
2013-06-02 15:00:00,62.1,42.6,30.12,NE,49,6.0,16.0,49,0.00,,,0.00,meteohub,2013-06-02 20:00:00,
2013-06-02 15:05:00,62.2,42.3,30.12,NNE,28,5.0,16.0,48,0.00,,,0.00,meteohub,2013-06-02 20:05:00,
2013-06-02 15:10:00,62.4,41.4,30.11,NNW,332,9.0,14.0,46,0.00,,,0.00,meteohub,2013-06-02 20:10:00,
2013-06-02 15:15:00,62.8,42.3,30.11,ESE,117,3.0,11.0,47,0.00,,,0.00,meteohub,2013-06-02 20:15:00,
2013-06-02 15:20:00,63.0,42.4,30.11,ESE,106,5.0,12.0,47,0.00,,,0.00,meteohub,2013-06-02 20:20:00,
2013-06-02 15:25:00,63.0,42.4,30.11,East,86,5.0,15.0,47,0.00,,,0.00,meteohub,2013-06-02 20:25:00,
2013-06-02 15:30:00,63.1,43.2,30.11,ENE,63,8.0,15.0,48,0.00,,,0.00,meteohub,2013-06-02 20:30:00,
2013-06-02 15:35:00,63.5,43.5,30.11,East,80,4.0,15.0,48,0.00,,,0.00,meteohub,2013-06-02 20:35:00,
2013-06-02 15:40:00,63.7,43.2,30.11,East,88,4.0,11.0,47,0.00,,,0.00,meteohub,2013-06-02 20:40:00,
2013-06-02 15:45:00,63.3,43.3,30.11,ENE,68,5.0,11.0,48,0.00,,,0.00,meteohub,2013-06-02 20:45:00,
2013-06-02 15:51:00,63.0,41.4,30.11,East,94,2.0,11.0,45,0.00,,,0.00,meteohub,2013-06-02 20:51:00,
2013-06-02 15:56:00,63.3,42.8,30.11,ENE,67,0.0,11.0,47,0.00,,,0.00,meteohub,2013-06-02 20:56:00,
2013-06-02 16:01:00,63.9,42.6,30.11,ENE,61,4.0,9.0,46,0.00,,,0.00,meteohub,2013-06-02 21:01:00,
2013-06-02 16:06:00,64.0,41.2,30.11,NNE,21,4.0,13.0,43,0.00,,,0.00,meteohub,2013-06-02 21:06:00,
2013-06-02 16:11:00,64.2,42.4,30.11,NNE,25,3.0,13.0,45,0.00,,,0.00,meteohub,2013-06-02 21:11:00,
2013-06-02 16:16:00,63.9,42.1,30.10,East,87,0.0,13.0,45,0.00,,,0.00,meteohub,2013-06-02 21:16:00,
2013-06-02 16:21:00,64.0,42.3,30.10,ENE,59,5.0,13.0,45,0.00,,,0.00,meteohub,2013-06-02 21:21:00,
2013-06-02 16:26:00,64.4,42.6,30.10,NNE,19,4.0,13.0,45,0.00,,,0.00,meteohub,2013-06-02 21:26:00,
2013-06-02 16:31:00,64.6,42.3,30.10,East,101,6.0,12.0,44,0.00,,,0.00,meteohub,2013-06-02 21:31:00,
2013-06-02 16:36:00,64.0,42.3,30.10,East,79,5.0,12.0,45,0.00,,,0.00,meteohub,2013-06-02 21:36:00,
2013-06-02 16:41:00,64.4,42.6,30.10,NE,49,5.0,10.0,45,0.00,,,0.00,meteohub,2013-06-02 21:41:00,
2013-06-02 16:46:00,64.2,42.4,30.10,NE,38,2.0,9.0,45,0.00,,,0.00,meteohub,2013-06-02 21:46:00,
2013-06-02 16:51:00,64.8,43.0,30.10,NNE,32,13.0,13.0,45,0.00,,,0.00,meteohub,2013-06-02 21:51:00,
2013-06-02 16:56:00,64.6,41.5,30.09,NNE,19,2.0,17.0,43,0.00,,,0.00,meteohub,2013-06-02 21:56:00,
2013-06-02 17:01:00,64.2,41.2,30.10,NE,52,2.0,17.0,43,0.00,,,0.00,meteohub,2013-06-02 22:01:00,
2013-06-02 17:06:00,64.2,42.4,30.09,NE,53,0.0,17.0,45,0.00,,,0.00,meteohub,2013-06-02 22:06:00,
2013-06-02 17:11:00,64.4,41.4,30.09,NE,44,4.0,9.0,43,0.00,,,0.00,meteohub,2013-06-02 22:11:00,
2013-06-02 17:16:00,64.2,42.4,30.09,ENE,77,7.0,10.0,45,0.00,,,0.00,meteohub,2013-06-02 22:16:00,
2013-06-02 17:21:00,64.6,42.8,30.09,NE,40,2.0,10.0,45,0.00,,,0.00,meteohub,2013-06-02 22:21:00,
2013-06-02 17:26:00,64.8,42.3,30.09,NNE,15,1.0,11.0,44,0.00,,,0.00,meteohub,2013-06-02 22:26:00,
2013-06-02 17:31:00,64.8,43.0,30.09,East,80,4.0,11.0,45,0.00,,,0.00,meteohub,2013-06-02 22:31:00,
2013-06-02 17:36:00,64.2,42.4,30.09,ENE,62,0.0,9.0,45,0.00,,,0.00,meteohub,2013-06-02 22:36:00,
2013-06-02 17:41:00,64.9,43.2,30.08,ENE,62,2.0,9.0,45,0.00,,,0.00,meteohub,2013-06-02 22:41:00,
2013-06-02 17:46:00,64.9,41.9,30.08,ENE,61,0.0,7.0,43,0.00,,,0.00,meteohub,2013-06-02 22:46:00,
2013-06-02 17:51:00,64.9,43.2,30.08,ENE,61,3.0,6.0,45,0.00,,,0.00,meteohub,2013-06-02 22:51:00,
2013-06-02 17:56:00,64.8,42.3,30.08,NE,50,2.0,7.0,44,0.00,,,0.00,meteohub,2013-06-02 22:56:00,
2013-06-02 18:01:00,64.6,42.3,30.08,NE,54,0.0,7.0,44,0.00,,,0.00,meteohub,2013-06-02 23:01:00,
2013-06-02 18:06:00,64.4,41.4,30.08,NE,55,3.0,7.0,43,0.00,,,0.00,meteohub,2013-06-02 23:06:00,
2013-06-02 18:11:00,64.6,42.8,30.08,NE,55,3.0,6.0,45,0.00,,,0.00,meteohub,2013-06-02 23:11:00,
2013-06-02 18:16:00,64.6,41.5,30.08,ENE,66,2.0,7.0,43,0.00,,,0.00,meteohub,2013-06-02 23:16:00,
2013-06-02 18:21:00,64.2,42.4,30.08,East,80,3.0,7.0,45,0.00,,,0.00,meteohub,2013-06-02 23:21:00,
2013-06-02 18:26:00,64.6,43.9,30.08,East,80,3.0,7.0,47,0.00,,,0.00,meteohub,2013-06-02 23:26:00,
2013-06-02 18:31:00,64.9,43.2,30.08,East,79,0.0,7.0,45,0.00,,,0.00,meteohub,2013-06-02 23:31:00,
2013-06-02 18:36:00,65.7,43.2,30.08,East,79,2.0,6.0,44,0.00,,,0.00,meteohub,2013-06-02 23:36:00,
2013-06-02 18:41:00,65.5,43.0,30.08,ENE,76,1.0,4.0,44,0.00,,,0.00,meteohub,2013-06-02 23:41:00,
2013-06-02 18:46:00,64.9,43.2,30.08,ENE,75,3.0,5.0,45,0.00,,,0.00,meteohub,2013-06-02 23:46:00,
2013-06-02 18:51:00,64.8,43.0,30.08,ENE,65,1.0,5.0,45,0.00,,,0.00,meteohub,2013-06-02 23:51:00,
2013-06-02 18:56:00,65.1,43.9,30.08,NE,52,4.0,8.0,46,0.00,,,0.00,meteohub,2013-06-02 23:56:00,
2013-06-02 19:01:00,65.3,43.3,30.08,NE,51,3.0,8.0,45,0.00,,,0.00,meteohub,2013-06-03 00:01:00,
2013-06-02 19:07:00,64.9,42.4,30.08,NE,49,0.0,7.0,44,0.00,,,0.00,meteohub,2013-06-03 00:07:00,
2013-06-02 19:12:00,65.1,42.1,30.08,NE,48,4.0,7.0,43,0.00,,,0.00,meteohub,2013-06-03 00:12:00,
2013-06-02 19:17:00,64.9,41.9,30.08,NE,48,0.0,7.0,43,0.00,,,0.00,meteohub,2013-06-03 00:17:00,
2013-06-02 19:22:00,65.5,43.0,30.08,NE,46,1.0,5.0,44,0.00,,,0.00,meteohub,2013-06-03 00:22:00,
2013-06-02 19:27:00,65.7,42.6,30.08,NE,46,2.0,5.0,43,0.00,,,0.00,meteohub,2013-06-03 00:27:00,
2013-06-02 19:32:00,65.8,42.8,30.08,NE,46,2.0,3.0,43,0.00,,,0.00,meteohub,2013-06-03 00:32:00,
2013-06-02 19:37:00,64.9,42.4,30.08,NE,46,2.0,4.0,44,0.00,,,0.00,meteohub,2013-06-03 00:37:00,
2013-06-02 19:42:00,64.2,41.2,30.08,NE,46,0.0,4.0,43,0.00,,,0.00,meteohub,2013-06-03 00:42:00,
2013-06-02 19:47:00,64.6,42.8,30.08,NE,47,0.0,4.0,45,0.00,,,0.00,meteohub,2013-06-03 00:47:00,
2013-06-02 19:52:00,64.8,43.0,30.08,NE,47,0.0,4.0,45,0.00,,,0.00,meteohub,2013-06-03 00:52:00,
2013-06-02 19:57:00,65.3,43.3,30.08,NE,47,0.0,1.0,45,0.00,,,0.00,meteohub,2013-06-03 00:57:00,
2013-06-02 20:02:00,65.7,43.2,30.08,NE,46,0.0,1.0,44,0.00,,,0.00,meteohub,2013-06-03 01:02:00,
2013-06-02 20:07:00,65.7,43.7,30.08,NE,47,0.0,1.0,45,0.00,,,0.00,meteohub,2013-06-03 01:07:00,
2013-06-02 20:12:00,64.9,43.7,30.08,NE,47,0.0,1.0,46,0.00,,,0.00,meteohub,2013-06-03 01:12:00,
2013-06-02 20:17:00,64.0,43.3,30.08,NE,47,0.0,2.0,47,0.00,,,0.00,meteohub,2013-06-03 01:17:00,
2013-06-02 20:22:00,63.9,43.7,30.08,NE,46,0.0,2.0,48,0.00,,,0.00,meteohub,2013-06-03 01:22:00,
2013-06-02 20:27:00,63.9,43.7,30.08,NE,47,0.0,2.0,48,0.00,,,0.00,meteohub,2013-06-03 01:27:00,
2013-06-02 20:32:00,63.3,43.9,30.08,NE,47,0.0,0.0,49,0.00,,,0.00,meteohub,2013-06-03 01:32:00,
2013-06-02 20:37:00,62.1,43.2,30.07,NE,46,0.0,1.0,50,0.00,,,0.00,meteohub,2013-06-03 01:37:00,
2013-06-02 20:42:00,61.0,43.7,30.07,NE,47,0.0,1.0,53,0.00,,,0.00,meteohub,2013-06-03 01:42:00,
2013-06-02 20:47:00,59.9,44.2,30.07,NE,47,0.0,0.0,56,0.00,,,0.00,meteohub,2013-06-03 01:47:00,
2013-06-02 20:52:00,58.6,44.4,30.07,NE,47,0.0,0.0,59,0.00,,,0.00,meteohub,2013-06-03 01:52:00,
2013-06-02 20:57:00,57.6,44.2,30.07,NE,47,0.0,0.0,61,0.00,,,0.00,meteohub,2013-06-03 01:57:00,
2013-06-02 21:02:00,56.5,42.8,30.07,NE,47,0.0,0.0,60,0.00,,,0.00,meteohub,2013-06-03 02:02:00,
2013-06-02 21:07:00,55.9,43.2,30.08,NE,47,0.0,0.0,62,0.00,,,0.00,meteohub,2013-06-03 02:07:00,
2013-06-02 21:12:00,55.6,43.2,30.08,NE,47,0.0,0.0,63,0.00,,,0.00,meteohub,2013-06-03 02:12:00,
2013-06-02 21:17:00,55.2,42.8,30.08,NE,46,0.0,0.0,63,0.00,,,0.00,meteohub,2013-06-03 02:17:00,
2013-06-02 21:22:00,54.9,43.3,30.08,NE,47,0.0,0.0,65,0.00,,,0.00,meteohub,2013-06-03 02:22:00,
2013-06-02 21:27:00,54.3,43.2,30.08,NE,47,0.0,0.0,66,0.00,,,0.00,meteohub,2013-06-03 02:27:00,
2013-06-02 21:32:00,54.0,43.3,30.08,NE,46,0.0,0.0,67,0.00,,,0.00,meteohub,2013-06-03 02:32:00,
2013-06-02 21:37:00,53.4,43.5,30.08,NE,46,0.0,0.0,69,0.00,,,0.00,meteohub,2013-06-03 02:37:00,
2013-06-02 21:42:00,53.1,43.2,30.08,NE,47,0.0,0.0,69,0.00,,,0.00,meteohub,2013-06-03 02:42:00,
2013-06-02 21:47:00,52.9,43.7,30.08,NE,47,0.0,0.0,71,0.00,,,0.00,meteohub,2013-06-03 02:47:00,
2013-06-02 21:52:00,52.3,43.5,30.08,NE,46,0.0,0.0,72,0.00,,,0.00,meteohub,2013-06-03 02:52:00,
2013-06-02 21:57:00,52.2,43.7,30.09,NE,46,0.0,0.0,73,0.00,,,0.00,meteohub,2013-06-03 02:57:00,
2013-06-02 22:02:00,51.8,43.7,30.09,NE,47,0.0,0.0,74,0.00,,,0.00,meteohub,2013-06-03 03:02:00,
2013-06-02 22:07:00,51.6,43.9,30.09,NE,47,0.0,0.0,75,0.00,,,0.00,meteohub,2013-06-03 03:07:00,
2013-06-02 22:12:00,51.3,43.5,30.09,NE,46,0.0,0.0,75,0.00,,,0.00,meteohub,2013-06-03 03:12:00,
2013-06-02 22:17:00,51.1,43.7,30.09,NE,46,0.0,0.0,76,0.00,,,0.00,meteohub,2013-06-03 03:17:00,
2013-06-02 22:22:00,50.7,43.7,30.09,NE,47,0.0,0.0,77,0.00,,,0.00,meteohub,2013-06-03 03:22:00,
2013-06-02 22:27:00,50.4,43.7,30.09,NE,47,0.0,0.0,78,0.00,,,0.00,meteohub,2013-06-03 03:27:00,
2013-06-02 22:32:00,50.2,43.5,30.09,NE,46,0.0,0.0,78,0.00,,,0.00,meteohub,2013-06-03 03:32:00,
2013-06-02 22:37:00,49.8,43.5,30.09,NE,47,0.0,0.0,79,0.00,,,0.00,meteohub,2013-06-03 03:37:00,
2013-06-02 22:42:00,49.6,43.7,30.09,NE,47,0.0,0.0,80,0.00,,,0.00,meteohub,2013-06-03 03:42:00,
2013-06-02 22:47:00,49.5,43.9,30.09,NE,46,0.0,0.0,81,0.00,,,0.00,meteohub,2013-06-03 03:47:00,
2013-06-02 22:52:00,49.3,43.7,30.09,NE,47,0.0,0.0,81,0.00,,,0.00,meteohub,2013-06-03 03:52:00,
2013-06-02 22:57:00,49.3,44.1,30.09,NE,46,0.0,0.0,82,0.00,,,0.00,meteohub,2013-06-03 03:57:00,
2013-06-02 23:01:00,49.3,44.1,30.09,NE,47,0.0,0.0,82,0.00,,,0.00,meteohub,2013-06-03 04:01:00,
2013-06-02 23:02:00,49.3,44.1,30.09,NE,47,0.0,0.0,82,0.00,,,0.00,meteohub,2013-06-03 04:02:00,
2013-06-02 23:07:00,48.9,43.7,30.09,NE,47,0.0,0.0,82,0.00,,,0.00,meteohub,2013-06-03 04:07:00,
2013-06-02 23:12:00,48.6,43.3,30.09,NE,46,0.0,0.0,82,0.00,,,0.00,meteohub,2013-06-03 04:12:00,
2013-06-02 23:17:00,48.2,43.3,30.09,NE,47,0.0,0.0,83,0.00,,,0.00,meteohub,2013-06-03 04:17:00,
2013-06-02 23:22:00,47.8,43.0,30.09,NE,47,0.0,0.0,83,0.00,,,0.00,meteohub,2013-06-03 04:22:00,
2013-06-02 23:27:00,47.8,43.2,30.09,NE,46,0.0,0.0,84,0.00,,,0.00,meteohub,2013-06-03 04:27:00,
2013-06-02 23:32:00,47.7,43.0,30.09,NE,47,0.0,0.0,84,0.00,,,0.00,meteohub,2013-06-03 04:32:00,
2013-06-02 23:37:00,47.3,42.8,30.09,NE,47,0.0,0.0,84,0.00,,,0.00,meteohub,2013-06-03 04:37:00,
2013-06-02 23:42:00,47.3,43.0,30.10,NE,46,0.0,1.0,85,0.00,,,0.00,meteohub,2013-06-03 04:42:00,
2013-06-02 23:47:00,47.5,43.2,30.10,NE,46,0.0,1.0,85,0.00,,,0.00,meteohub,2013-06-03 04:47:00,
2013-06-02 23:52:00,47.5,43.2,30.10,NE,47,0.0,1.0,85,0.00,,,0.00,meteohub,2013-06-03 04:52:00,
2013-06-02 23:57:00,47.5,43.2,30.10,NE,47,0.0,0.0,85,0.00,,,0.00,meteohub,2013-06-03 04:57:00,